Terug naar catalogus

NOAA 16 DEB

ActiefPO
NORAD 41659·DEBRIS·🇺🇸 United States

Gelanceerd Sep 21, 2000 vanaf Vandenberg Space Force Base

Loading…

Volgende Passages (komende 24 uur)

TLE

VersSource: Space-Track

Epoch: Sep 13, 2026, 05:38 UTC

1 41659U 00055NY  26256.23532111  .00006034  00000-0  15418-2 0  9998
2 41659  98.8784  45.7413 0012140 218.4360 141.5969 14.50806108540059

Volg NOAA 16 DEB in realtime met AllMySat

Download on the App Store